Regional Weather Roundup
Issued by NWS

Home | Current Version | Previous Version | Text Only | Print | Product List | Glossary On
Versions: 1 2 3 4 5 6 7 8 9 10 11 12 13 14 15 16 17 18 19 20 21 22 23 24 25 26 27 28 29 30 31 32 33 34 35 36 37 38 39 40 41 42 43 44 45 46 47 48 49 50
000
ASHW40 PHFO 260310
RWRHI

WEATHER ROUNDUP FOR HAWAII
NATIONAL WEATHER SERVICE HONOLULU HI
500 PM HST SUN JAN 25 2015

THIS IS AN AUTOMATED REPORT THAT HAS NOT BEEN QUALITY CONTROLLED.

NOTE..."FAIR" INDICATES FEW OR NO CLOUDS BELOW 12,000 FEET WITH NO
SIGNIFICANT WEATHER AND/OR OBSTRUCTIONS TO VISIBILITY.

* - THESE SITES REPORT LIMITED FIELDS

HIZ001>004-260400-
KAUAI-NIIHAU-

CITY           SKY/WX    TMP DP  RH WIND       PRES   REMARKS
LIHUE APT      CLOUDY    73  57  57 NE16      30.03R
PORT ALLEN*      N/A     75 N/A N/A NE17G25     N/A
POIPU*           N/A     75 N/A N/A NE9G20      N/A
PRINCEVILLE*     N/A     70 N/A N/A MISG        N/A
KOKOLE POINT*  NOT AVBL
MOLOAA DAIRY*  NOT AVBL
WAIMEA HTS*    NOT AVBL
PUU OPAE*      NOT AVBL
PUU LUA*       NOT AVBL
MAKAHA RIDGE*  NOT AVBL
$$

HIZ005>011-260400-
OAHU-

CITY           SKY/WX    TMP DP  RH WIND       PRES   REMARKS
HONOLULU       MOSUNNY   73  61  65 NE16G29   29.96S
KALAELOA       CLOUDY    73  60  63 NE13G24   29.98S
KANEOHE MCB    CLOUDY    72  61  68 E10G17    30.01R
WHEELER FIELD  PTSUNNY   69  60  72 N8        30.01R
BELLOWS*       NOT AVBL
KAHUKU*        NOT AVBL
WHEELER*       NOT AVBL
WAIANAE HARBOR NOT AVBL
DILLINGHAM*      N/A    N/A N/A N/A MISG        N/A
KAHUKU TRN*      N/A     66  59  77 E5G14       N/A
KAWAILOA*        N/A     64  59  82 NE13G22     N/A
KII*             N/A     72  61  68 NE13G18     N/A
MAKUA RANGE*     N/A     72  61  68 E16G26      N/A
OAHU FOREST NW NOT AVBL
SCHOFIELD BRK*   N/A     68  61  77 MISG        N/A
SCHOFIELD S*   NOT AVBL
WAIANAE VLY*   NOT AVBL
KUAOKALA*      NOT AVBL
HONOULIUULI*   NOT AVBL
MOKUOLOE IS*   NOT AVBL
PALEHUA*       NOT AVBL
WAIAWA PHB*    NOT AVBL
$$

HIZ012>013-260400-
MOLOKAI-

CITY           SKY/WX    TMP DP  RH WIND       PRES   REMARKS
MOLOKAI AIRPT  LGT RAIN  66  65  96 N16G23    29.99R
KALAUPAPA      NOT AVBL
MAKAPULAPAI*   NOT AVBL
MOLOKAI 1*     NOT AVBL
PUU ALII*      NOT AVBL
$$

HIZ016-260400-
KAHOOLAWE-

CITY           SKY/WX    TMP DP  RH WIND       PRES   REMARKS
KAHOOLAWE*     NOT AVBL
HAKIOAWA*      NOT AVBL
HONOKANAIA*      N/A     74  65  74 VRB18G36  29.96R
KANELOA*         N/A     73  68  83 MISG      29.17R
KEALIALALO*    NOT AVBL
LUA MAKIKA*    NOT AVBL
$$

HIZ014>015-260400-
LANAI-

CITY           SKY/WX    TMP DP  RH WIND       PRES   REMARKS
LANAI CITY     PTSUNNY   67  65  93 NE22G43   30.00R
LANAI 1*       NOT AVBL
$$

HIZ017>028-260400-
MAUI-

CITY           SKY/WX    TMP DP  RH WIND       PRES   REMARKS
KAHULUI        RAIN      68  67  96 NE21      30.00R FOG
KAPALUA-W MAUI LGT RAIN  68  66  94 NE22G29   29.98  FOG
HANA AIRPORT   RAIN      68  66  94 NE10      30.03S VSB 1/4
HANA*          NOT AVBL
HALEAKALA SUMM   N/A     50   7  17 NE16        N/A
MAALAEA BAY*   NOT AVBL
HALEAKALA*     NOT AVBL
KAUPO GAP*     NOT AVBL
KULA 1*          N/A     56  55  95 SW2         N/A
$$

HIZ023>026-260400-
BIG ISLAND OF HAWAII COAST AND LOWER SLOPES-

CITY           SKY/WX    TMP DP  RH WIND       PRES   REMARKS
KAILUA KONA    CLOUDY    80  67  64 NW10      29.90R
HILO           LGT RAIN  72  69  90 NE13      29.96R
HONOKAA*       NOT AVBL
KAWAIHAE MWT*  NOT AVBL
KAWAIHAE*        N/A     81 N/A N/A SW3         N/A
SOUTH POINT*   NOT AVBL
UPOLU AIRPORT* NOT AVBL
KAMUELA*       NOT AVBL
HAKALAU*         N/A     55  55 100 NE7G13      N/A
KALOKO-HONOKO* NOT AVBL
PALI 2*          N/A     68  61  77 NE9G15      N/A
KEALAKOMO*       N/A     75  72  88 NE15G22     N/A
KAUPULEHU*     NOT AVBL
KAPAPALA*        N/A     67  65  95 CALM        N/A
LOWER KAHUKU*  NOT AVBL
PUHE CS*       NOT AVBL
PUHO CS*       NOT AVBL
PTA KEAMUKU*     N/A     64  59  82 NE2G10      N/A
WAIKOLOA*      NOT AVBL
$$

HIZ027>028-260400-
BIG ISLAND OF HAWAII INTERIOR AND SUMMMITS-

CITY           SKY/WX    TMP DP  RH WIND       PRES   REMARKS
BRADSHAW FIELD PTSUNNY   59  57  94 SW6       30.24R FOG
MK VISITOR CEN NOT AVBL
MAUNA KEA*       N/A     46   3  17 N2          N/A
MAUNA LOA*       N/A     48  41  76 MISG        N/A
MAUNA LOA 1*   NOT AVBL
PTA KIPUKA*      N/A     57  57 100 NW6G15      N/A
PTA RANGE 17*    N/A     63  55  77 SW8G14      N/A
PTA WEST*        N/A     64  59  82 NW13G25     N/A
NENE CABIN*    NOT AVBL
AHUMOA*        NOT AVBL
PTA PORTABLE*  NOT AVBL
PUU MALI*      NOT AVBL
$$

HIC003-260400-
NORTHWEST ISLANDS-

CITY           SKY/WX    TMP DP  RH WIND       PRES   REMARKS
MIDWAY ISLAND  SUNNY     72  63  73 SW12      30.04F
MIDWAY NOS*    NOT AVBL
FRENCH FRIGATE NOT AVBL
$$

PHZ110>124-180-260400-
BUOY REPORTS

STATION/POSITION TIME  TEMP    WIND        PRES    WAVE   SWELL
                       AIR SEA DIR/SP/G            HT/PER HT/DIR
                 (UTC) (F)     (DEG/KT/KT) (MB)    (FT/S) (FT/D)
BUOY 51001       NOT AVBL
BUOY 51101       0300   70 73   70/ 12/ 16 1017.8R   9/13   8/310
BUOY 51100       0200   70 75   50/ 14/ 16 1016.5S
BUOY 51003       0200   76 78   60/ 14/ 16 1013.8S  11/13  10
BUOY 51004       0236   76 78   50/  8/ 10 1012.2R   8/15   8/310
BARBERS PT BUOY  NOT AVBL
WAIMEA BAY BUOY  0300      75                N/A     9/14   7/310
KAILUA BAY BUOY  0300      76                N/A     7/ 6   3/340
LANAI BUOY       0300      77                N/A     4/15   3/290
BARBERS PT 2     0300      77                N/A     7/14   7/300
PAUWELA MAUI     0300      76                N/A    10/14   7/320
HILO             0300      77                N/A    10/15
KANEOHE BAY BUOY 0300      75                N/A     6/13   3/350
HANALEI KAUAI    NOT AVBL
KAHULUI HARBOR   0300   69 76  360/ 13/ 18 1015.6R
HONOLULU HARBOR  0300   71 75   50/ 13/ 22 1014.4R
KILO NALU        NOT AVBL
HILO HARBOR      0300   71      40/ 19/ 23 1013.8S
MOKUOLOE         0300      75              1016.2R
NAWILIWILI       0300      76                N/A
WHOTS BUOY       NOT AVBL
BUOY 51028       NOT AVBL
$$

......................KEY........................................
  SKY/WX - SKY CONDITIONS/PRESENT WEATHER
  TMP    - TEMPERATURE IN FAHRENHEIT
  DWPT   - DEWPOINT IN FAHRENHEIT
  RH     - RELATIVE HUMIDITY IN PERCENT
  WIND   - DIRECTION AND SPEED /MPH FOR ISLANDS...KTS FOR BUOYS/
  PRES   - MEAN SEA LEVEL PRESSURE IN INCHES OF HG
  VSB    - VISIBILITY IN MILES
  HX     - HEAT INDEX
  WCI    - WIND CHILL INDEX
  VRB    - VARIABLE WIND DIRECTION
  N/A    - NOT AVAILABLE



USA.gov is the U.S. government's official web portal to all federal, state and local government web resources and services.